OneWeb SL0240

operational
NORAD ID: 48785 Int'l Des: 2021-045 Owner: ONEWEBN Country: UK Constellation: oneweb
LEOCIRCULARPOLARONEWEB_TYPE

Über OneWeb SL0240

Beschreibung wird geladen...

Live-Position

3D-Globus wird geladen...

Nächste Überflüge

Höhenverlauf

Altitude vs Time

uPlot chart will show altitude changes over time

Zweizeiliger Elementsatz

1 48785U 21045U 25351.32988394 -.00000099 00000-0 -29645-3 0 9995
2 48785 87.9011 295.4545 0001830 66.3166 293.8156 13.15551056220497
Epoch: 17. Dez. 2025 • Age: 12 hours

Aktueller Status

Höhe 1218.6 km
Geschwindigkeit 7.24 km/s
Subsatellitenpunkt -40.66°S, 90.65°E
Startdatum 28. Mai 2021
Alter 4.5 years
Typ internet

Technische Details

Klassifizierung Payload
Masse 148.00 kg
Trockenmasse 140.00 kg
Gesamtmasse 148.00 kg
Länge 1.30 m
Durchmesser 1.00 m
Spannweite 5.00 m
Form Trapezoid+2 pan
Hersteller ONEWUS
Bus-Typ ARROW
Phasenstatus In Orbit
Besitzer/Staat ONEWEBN/UK

Große Konstellationen

Loading constellations...